Theta_e
355 356 356 355 354 354 357 358 358 358 358 357 357 357 357 356 355 353 352 352 353 353 354 356 356 357 356 356 357 360 361 360 360 360 360 359 358 360 368 370 372 374 375 376 377 377 375 374 374 374 374 373 372 371 372 371 370 369 369 368 368 368 367 366 366 366 365 365 364 363 362 363 363 363 362 362 362 362 362 362 361 362 362 361 361
354 356 355 354 353 352 353 356 356 356 355 354 356 356 355 354 352 351 351 350 350 351 355 352 352 354 355 355 356 356 359 359 359 358 359 358 357 358 366 368 372 372 374 377 378 378 377 376 375 374 374 374 374 373 372 371 371 370 369 369 370 369 369 368 367 366 365 365 365 364 363 363 363 363 363 363 362 363 362 362 362 362 361 361 361
352 354 354 354 352 350 349 351 353 354 353 353 354 354 353 351 350 348 347 347 348 349 349 348 349 351 353 354 353 354 355 358 359 360 359 358 357 358 360 368 370 371 371 373 375 379 378 376 375 375 374 374 374 374 373 371 371 371 371 370 370 370 369 368 368 366 366 366 365 366 365 364 363 363 363 363 363 363 363 362 362 362 362 362 362
350 352 353 351 349 347 348 349 350 351 352 351 352 353 352 351 351 350 349 347 347 347 348 347 346 347 348 349 350 351 353 356 359 360 361 360 358 357 356 358 365 368 370 370 369 372 379 377 376 375 375 374 375 375 374 373 372 372 371 371 370 370 369 369 369 368 366 367 366 366 366 366 365 364 364 363 363 363 363 363 363 362 362 362 362
350 350 357 348 346 343 349 352 351 351 352 352 352 352 352 350 349 350 348 348 347 346 348 347 345 344 345 346 347 347 351 354 358 360 361 360 358 356 354 355 355 361 364 367 368 372 378 379 377 377 375 375 375 375 374 374 373 372 372 372 372 371 370 369 368 368 368 367 367 366 365 366 366 365 365 365 364 363 364 363 362 362 362 362 362
353 352 350 345 343 343 349 352 351 352 352 352 351 350 348 347 347 348 351 351 346 345 342 340 339 339 340 342 345 346 348 352 355 357 357 355 354 352 351 350 351 351 353 361 364 367 373 377 379 378 377 376 376 376 374 375 374 373 372 372 372 372 371 370 369 368 368 368 368 367 367 366 366 366 365 365 364 364 364 364 363 363 362 362 362
355 353 351 345 343 343 345 348 351 352 352 353 351 349 348 347 347 345 345 342 341 342 341 338 337 338 338 338 342 346 347 349 351 352 350 348 347 346 346 346 347 348 349 349 358 362 368 374 376 378 378 377 377 376 375 375 374 374 373 373 372 372 372 371 370 370 369 368 367 368 367 367 366 366 366 365 365 364 364 364 364 362 363 363 363
355 353 351 348 343 342 343 345 346 350 350 350 352 348 346 346 346 345 340 339 339 341 343 341 341 341 341 338 344 350 346 347 348 348 347 347 346 345 345 346 346 346 354 349 348 352 361 369 375 376 378 378 377 376 376 375 375 374 374 374 373 372 372 371 371 370 369 369 367 368 367 367 367 366 366 366 365 365 365 364 365 364 363 363 363
356 354 352 350 345 342 341 344 348 345 346 346 347 348 344 344 342 346 343 342 342 343 343 344 343 343 342 343 342 349 343 345 345 344 350 345 344 345 345 345 348 358 352 351 350 350 358 367 374 376 376 376 376 376 376 375 375 375 374 374 374 373 373 373 372 372 371 369 369 367 367 366 366 366 366 366 366 365 365 365 365 365 364 364 364
354 354 352 351 348 343 341 344 345 343 343 342 342 344 344 343 343 346 349 346 343 343 343 344 345 345 344 345 342 342 342 341 344 354 344 342 342 343 344 346 347 347 348 349 349 349 350 361 373 376 377 376 376 376 375 376 375 375 375 375 375 375 374 374 373 372 371 371 370 368 367 367 367 366 366 366 366 366 365 365 365 365 365 365 363
352 353 351 350 350 349 349 348 349 347 343 342 342 347 349 347 346 345 348 348 346 346 345 345 345 344 343 344 348 344 342 341 344 344 345 343 343 346 345 344 344 344 345 346 346 346 348 353 359 369 372 378 377 375 375 376 375 375 375 375 375 375 375 374 374 374 373 372 371 369 368 367 368 367 366 366 366 366 366 366 365 365 365 366 365
352 351 351 352 349 348 348 349 346 346 346 343 344 346 344 345 345 346 345 347 348 345 344 343 342 341 342 347 347 346 345 345 345 342 345 345 344 347 346 346 345 345 345 346 346 346 348 353 362 364 368 374 379 377 375 375 376 375 375 375 375 375 375 374 375 374 374 373 372 371 370 370 369 367 366 366 366 366 366 366 366 365 365 365 366
355 351 350 355 354 349 349 349 348 350 346 343 345 344 345 345 347 353 349 344 343 345 345 346 341 339 339 343 343 345 349 350 345 344 344 344 345 344 345 346 345 344 345 346 346 347 350 356 360 363 366 366 372 379 377 376 376 376 375 375 375 375 375 375 375 375 375 375 374 372 372 370 368 367 367 368 367 366 365 366 366 365 365 365 365
356 352 352 350 350 351 351 350 349 346 347 350 346 356 353 351 349 345 349 344 343 345 346 344 338 337 334 337 339 341 347 352 347 345 344 343 344 343 343 344 344 345 346 346 346 347 349 356 360 363 363 363 362 369 375 375 375 376 376 376 376 376 375 374 375 375 374 375 375 374 373 372 371 370 369 369 369 368 367 365 365 366 366 365 365
353 355 351 351 350 350 350 350 348 348 346 343 347 349 349 347 347 344 342 346 346 348 346 344 338 344 342 337 333 334 340 341 348 346 344 343 343 343 345 344 345 345 346 347 346 347 351 354 358 362 362 361 360 362 369 374 372 375 377 375 374 375 376 375 375 375 375 375 374 374 374 373 373 371 370 370 369 369 368 368 367 367 366 366 366
353 354 354 351 351 350 351 350 349 349 344 341 343 345 346 347 348 348 345 342 344 344 350 346 343 341 334 336 334 336 331 332 338 341 344 344 343 343 344 344 345 344 344 345 345 345 346 351 352 356 359 360 359 359 361 364 371 375 375 376 374 372 374 375 375 375 375 375 374 374 374 373 373 372 371 370 370 369 368 368 367 367 367 366 366
352 354 355 353 353 353 351 351 350 349 349 346 345 346 344 344 346 347 347 344 342 343 346 348 346 345 340 337 333 331 331 335 338 336 341 341 341 341 341 343 342 342 343 342 344 345 345 347 349 350 354 358 358 358 359 360 361 369 372 375 375 374 371 373 375 376 376 375 374 373 373 373 372 372 372 371 370 369 369 368 368 368 367 366 366
351 355 355 356 354 355 354 353 351 350 349 347 345 344 343 343 344 345 345 347 344 342 342 347 349 349 346 343 339 334 333 336 335 329 339 342 341 340 338 336 338 341 342 342 342 343 350 345 347 348 349 352 356 356 358 359 363 363 366 368 376 376 372 372 374 376 376 375 374 373 373 373 372 372 372 372 371 370 369 369 368 368 367 366 365
351 354 356 357 356 355 354 353 352 350 351 347 344 344 343 343 344 343 344 347 346 342 342 343 346 348 350 347 346 344 342 338 332 334 331 333 336 337 335 334 334 335 340 342 341 342 343 345 345 347 348 349 350 353 355 358 363 364 367 368 371 373 373 372 374 374 376 376 374 373 373 373 373 372 372 371 371 370 369 369 369 368 367 366 366
352 353 355 356 356 354 353 352 351 350 349 348 346 346 346 347 349 348 346 346 345 344 342 343 341 341 349 346 346 348 345 343 339 336 333 330 333 336 332 333 334 333 334 333 333 334 333 335 340 345 347 348 349 349 351 354 357 361 364 370 369 370 371 372 373 375 376 377 375 374 373 373 372 372 371 371 371 370 370 369 369 368 368 367 367
351 352 352 353 357 355 353 352 350 350 352 348 348 348 347 347 348 348 348 347 347 346 344 343 344 343 343 344 344 344 346 344 343 341 335 330 330 328 328 331 333 334 334 335 335 337 339 336 337 347 348 349 348 349 350 351 353 357 363 369 370 370 371 372 372 375 376 377 375 374 374 373 372 371 371 370 370 370 370 370 369 369 368 368 368
348 349 350 350 351 354 354 352 351 350 353 349 348 349 349 349 350 349 349 347 346 348 346 344 344 345 344 344 342 342 341 340 340 339 338 336 330 326 327 328 328 330 336 335 337 337 337 337 336 335 340 346 347 348 349 350 352 354 358 366 370 371 371 372 372 374 375 376 375 374 373 373 372 371 371 370 370 370 370 370 370 369 369 368 368
347 349 349 348 347 349 351 351 352 355 354 351 350 349 350 350 351 350 350 347 345 345 348 348 346 345 345 344 343 342 340 339 338 337 334 330 328 328 329 330 330 330 333 338 341 338 337 337 336 335 336 337 341 345 347 349 359 359 364 365 367 369 371 373 373 374 376 376 374 374 373 373 372 372 371 370 370 369 369 370 370 369 369 368 368
347 347 348 349 348 347 350 350 350 351 352 352 352 351 351 352 351 350 348 347 345 347 344 344 346 346 346 346 345 344 343 342 342 341 337 335 332 331 330 330 332 332 334 336 337 336 336 336 337 337 336 337 338 341 342 348 350 364 363 365 365 367 370 372 373 373 374 374 374 374 374 373 372 371 371 371 370 370 369 369 369 369 369 369 368
344 345 346 347 349 348 348 349 349 351 353 353 353 352 352 352 351 350 348 346 345 345 346 346 346 346 346 348 347 345 344 345 344 342 341 338 334 329 329 333 329 329 333 339 334 336 337 336 337 338 339 338 339 344 343 345 342 353 364 361 366 366 368 370 372 373 373 373 373 374 374 373 372 371 370 370 370 370 369 369 369 369 369 368 368
344 343 345 345 345 347 350 349 350 351 353 353 353 353 353 351 350 349 348 348 347 346 346 348 347 348 348 346 346 346 345 345 344 343 341 336 331 330 329 333 335 331 335 335 336 333 333 338 339 339 338 337 339 340 340 337 343 359 367 357 361 365 366 367 370 372 374 373 373 374 374 373 373 372 371 371 371 370 370 369 369 370 369 368 368
346 346 347 345 344 343 345 348 349 349 350 352 353 352 352 351 350 348 349 347 346 346 346 346 345 345 347 347 347 345 345 344 344 345 342 337 335 334 332 328 328 332 332 334 334 333 332 335 338 337 337 344 340 339 343 341 350 363 371 354 352 363 363 365 367 370 372 374 374 374 375 375 374 374 373 372 372 371 370 370 370 371 371 371 369
344 346 346 347 346 345 345 345 346 347 349 350 350 350 350 349 348 348 346 349 345 345 346 347 346 346 346 346 345 345 345 345 343 342 342 341 337 337 335 331 328 326 330 330 331 331 335 333 336 338 338 339 340 345 351 342 337 360 359 343 340 344 356 360 361 365 368 371 373 374 376 377 377 377 375 372 371 371 371 371 371 371 371 371 371
344 346 345 346 347 347 346 345 346 349 350 351 352 351 351 350 348 347 346 347 348 346 349 350 350 351 352 350 350 349 346 343 342 344 344 346 346 345 340 336 333 328 325 326 329 329 332 335 333 335 343 341 342 342 341 339 349 352 343 344 341 342 345 346 352 358 361 365 369 371 373 373 374 374 374 374 374 372 372 372 372 372 371 371 371
349 348 346 345 346 352 348 345 345 349 351 351 351 351 351 350 350 350 352 355 354 354 354 352 350 350 351 348 346 348 344 342 344 345 345 345 348 344 345 344 338 332 330 327 328 332 332 336 335 335 340 341 341 342 342 340 352 348 345 344 342 340 346 349 351 351 353 356 358 361 364 365 366 368 369 370 370 371 372 373 373 373 373 372 371
354 352 350 345 342 343 345 345 347 349 350 351 353 350 348 346 350 352 353 352 351 350 351 353 353 354 353 350 346 343 343 343 344 344 343 344 345 347 345 344 339 337 332 331 327 333 336 334 336 339 338 340 342 342 342 344 347 347 343 342 341 348 353 353 355 353 351 351 352 356 361 365 366 368 369 369 369 369 370 371 371 372 372 372 372
348 350 350 351 351 350 352 355 355 354 354 356 358 355 352 350 349 346 344 345 345 346 347 348 347 346 347 346 340 339 340 343 343 344 343 344 345 342 340 342 341 339 336 332 329 330 337 337 338 339 340 340 341 339 339 341 344 352 345 343 342 350 348 345 350 351 352 350 349 350 353 360 365 368 371 368 368 368 367 367 368 369 370 371 371
359 360 360 360 360 360 361 360 358 356 356 357 359 353 349 345 343 343 343 343 342 343 343 341 342 342 344 343 340 340 340 340 341 342 342 341 342 341 340 341 341 339 336 333 331 333 337 341 340 340 341 341 339 340 339 340 341 342 347 344 344 342 342 343 344 346 348 349 348 347 347 349 356 363 367 368 367 366 366 366 365 365 366 366 365
361 359 358 357 356 355 355 357 353 349 347 344 346 351 351 346 344 345 343 342 340 341 342 342 342 342 342 341 341 340 340 340 339 338 337 338 340 338 337 338 338 338 340 338 336 334 333 338 338 339 339 341 338 341 340 340 341 344 342 341 342 342 342 343 343 344 346 347 347 347 346 346 348 352 357 362 365 366 366 365 364 363 362 360 358
359 357 353 351 350 348 346 343 340 338 338 336 336 337 338 339 342 343 343 342 342 344 344 344 343 343 342 341 341 343 341 339 338 338 339 339 341 340 339 340 340 341 341 340 338 334 334 334 338 337 337 339 339 340 342 342 343 342 340 340 340 342 345 344 344 344 343 345 346 346 345 345 345 346 349 351 353 356 358 358 357 355 353 350 349
352 352 350 348 347 344 340 336 333 332 332 331 330 331 332 332 331 332 333 334 334 334 336 336 338 338 338 338 337 340 343 340 339 339 340 341 342 343 342 342 341 340 339 338 335 332 331 329 332 334 335 336 339 342 343 345 344 343 341 341 342 341 341 346 345 344 344 345 345 345 344 343 342 342 342 343 344 346 347 344 343 344 343 343 344
348 347 347 346 343 338 335 332 329 329 328 328 326 326 327 328 327 328 329 330 329 330 332 333 335 334 334 333 334 334 334 335 337 340 340 340 340 340 339 340 340 340 338 338 337 336 333 331 332 334 336 336 337 338 339 338 340 339 340 340 341 341 340 341 343 345 345 345 345 344 343 342 342 340 339 338 337 338 338 338 338 339 339 339 340
345 345 344 342 338 333 332 330 328 327 327 326 325 324 324 324 324 324 325 326 326 326 328 329 329 330 330 330 331 332 331 329 330 331 333 335 336 336 337 337 338 339 338 338 338 336 335 333 333 333 335 333 333 334 338 338 336 335 336 338 340 340 339 339 340 344 346 345 347 344 342 340 339 338 339 338 337 336 336 337 337 337 337 336 335
343 342 341 337 334 331 329 328 327 327 326 325 324 323 323 322 322 322 322 322 323 324 325 326 326 327 327 328 329 330 330 330 330 330 332 333 334 334 336 335 336 336 337 338 338 337 335 334 333 332 331 333 333 332 335 336 336 336 334 334 335 339 340 339 341 345 347 348 346 346 347 346 347 345 338 336 335 335 335 336 336 338 339 338 334
340 340 337 332 330 329 328 327 327 327 325 324 324 323 323 322 321 320 320 322 321 322 323 324 325 326 326 327 328 329 330 331 332 332 332 331 331 331 333 334 335 333 333 334 334 334 334 333 332 331 331 331 331 333 334 333 332 332 335 335 333 335 335 337 340 340 341 343 341 345 347 346 344 344 343 342 341 339 339 338 338 340 342 341 336
340 337 333 329 326 325 325 324 324 324 324 324 325 324 323 323 322 321 320 320 321 321 322 323 324 324 324 325 326 327 331 334 335 336 335 335 333 332 332 332 334 332 331 332 332 332 332 331 332 333 331 329 329 328 328 329 329 330 333 335 333 336 336 337 339 339 340 339 342 342 343 348 346 345 344 344 346 345 345 342 343 344 344 343 339
337 335 330 328 325 323 322 322 322 323 323 324 328 328 327 324 322 321 320 320 320 320 321 321 320 321 322 322 325 329 331 332 332 333 334 335 336 335 333 332 332 331 330 330 330 330 330 330 331 331 330 329 330 330 329 331 332 332 333 333 333 332 333 332 334 335 344 341 340 338 340 346 344 341 341 341 344 347 348 346 345 344 342 338 335
334 334 330 326 324 323 322 321 321 322 322 324 326 324 325 326 325 321 319 318 319 319 319 319 319 321 321 321 322 326 328 330 330 331 333 334 334 334 335 335 334 334 331 329 328 330 329 329 329 328 329 329 331 332 332 332 330 330 331 330 330 329 328 326 326 333 342 339 336 333 335 339 341 338 339 342 343 345 346 346 341 339 337 335 334
329 329 329 327 325 323 323 321 321 322 322 325 323 324 325 325 326 320 318 318 319 319 318 318 319 319 320 321 322 324 325 327 329 329 331 332 333 333 333 334 335 337 337 333 331 331 330 329 328 329 329 327 328 330 330 330 330 331 330 328 327 327 325 326 324 326 334 342 336 332 334 335 339 339 338 341 343 344 345 340 332 332 331 330 330
326 325 325 327 325 324 322 320 320 321 320 324 323 323 323 323 324 323 317 317 318 318 318 318 318 318 319 320 321 323 323 328 329 328 327 327 332 333 333 334 335 334 335 335 336 335 335 332 330 330 331 328 325 329 334 332 333 328 328 328 326 325 324 324 325 328 334 340 335 332 330 334 337 337 336 340 341 342 343 337 332 332 331 329 328
324 324 324 323 324 324 322 321 320 319 319 322 321 321 321 322 323 322 317 317 318 317 318 318 318 318 319 319 319 320 321 324 327 328 326 325 325 326 326 325 326 332 336 335 335 337 336 333 332 330 332 330 329 330 335 334 332 330 329 328 326 326 327 327 329 332 334 339 333 330 329 330 334 335 333 337 340 341 342 329 324 327 328 328 327
323 322 322 322 324 325 322 320 318 318 319 321 320 320 320 320 322 322 316 317 317 317 317 319 320 320 319 320 320 321 322 326 327 328 326 325 324 324 323 323 324 329 329 331 332 334 336 335 332 332 333 333 335 334 332 332 333 332 332 331 330 331 331 332 331 333 333 335 333 331 326 328 330 331 333 336 338 338 340 332 326 326 326 326 326
324 324 323 323 321 321 321 320 318 317 318 320 319 320 319 319 322 318 316 316 316 317 317 319 320 321 322 322 322 323 324 326 326 327 327 326 322 322 322 321 321 326 327 332 333 334 336 334 334 334 333 335 336 336 337 336 336 334 336 335 333 331 327 326 325 327 329 334 334 328 323 323 329 331 330 334 334 334 335 337 333 328 326 326 325
321 322 321 322 322 322 323 320 317 316 318 321 319 319 319 319 321 315 315 316 316 317 317 319 321 322 324 325 326 325 325 325 325 324 326 328 319 320 319 319 321 323 323 325 331 332 334 333 332 332 331 333 333 331 330 334 336 337 332 329 325 327 325 321 324 324 325 329 333 333 328 327 328 328 328 329 332 331 333 334 339 333 326 325 324
321 321 321 321 321 323 322 320 321 317 316 320 320 317 317 318 320 315 315 315 315 317 318 320 322 324 326 329 327 324 323 323 323 322 324 325 318 318 318 317 319 318 320 323 326 331 335 336 335 333 334 335 336 337 338 336 336 339 327 325 332 331 325 323 322 322 325 329 331 334 329 326 327 327 326 326 332 333 332 334 338 336 333 330 325
322 322 323 319 319 320 321 321 324 317 315 318 320 316 316 316 318 315 314 314 315 316 317 320 322 323 324 326 327 323 321 320 319 320 321 324 318 317 317 316 315 316 317 320 324 328 330 331 332 335 334 337 337 335 337 339 339 337 334 332 333 331 329 329 328 325 323 327 333 335 325 324 327 326 326 325 324 328 331 335 336 336 335 338 339
Wind_Speed
6 6 5 6 6 5 5 5 5 5 5 6 6 6 6 7 7 6 5 5 5 5 4 4 4 5 6 6 6 6 6 6 6 6 5 5 5 7 13 14 13 13 13 13 12 12 14 14 15 16 17 17 17 16 15 16 16 15 15 15 15 15 15 15 15 15 15 15 15 15 15 15 15 15 14 14 14 14 14 14 14 14 15 15 15
6 6 6 7 6 5 5 5 6 5 5 6 6 6 7 6 6 6 6 5 4 3 2 5 6 6 6 7 7 7 6 6 6 6 6 6 6 6 12 14 12 11 10 11 11 11 12 13 14 15 16 17 18 17 16 16 16 16 15 15 15 15 15 15 15 15 15 15 15 15 15 16 16 15 15 15 15 15 15 14 14 15 15 15 15
7 7 6 6 6 5 6 6 6 6 6 7 6 7 7 6 6 6 4 4 6 5 5 5 5 6 6 7 7 6 6 6 6 6 6 6 6 6 7 13 14 12 11 11 11 10 12 13 14 15 16 17 17 17 17 17 17 16 15 15 15 16 16 16 15 16 15 15 15 15 16 16 16 16 16 16 16 16 16 15 15 15 15 15 15
8 7 7 6 6 5 6 6 7 6 7 7 7 7 7 5 3 3 3 4 6 6 5 5 7 8 6 7 7 6 6 6 6 6 7 6 6 6 6 6 11 12 10 9 9 10 10 13 14 15 15 16 17 18 17 18 18 17 16 16 16 16 16 16 16 16 16 16 15 15 16 16 16 16 17 17 17 16 16 16 15 15 16 16 16
6 7 6 6 6 5 6 7 7 7 7 8 8 5 4 4 4 3 4 5 5 7 5 5 6 8 7 8 6 5 5 5 5 6 7 6 6 6 6 5 5 8 11 11 10 10 10 11 13 14 15 15 17 17 18 18 19 18 17 16 16 16 16 16 16 16 16 16 16 16 16 16 16 17 18 18 18 18 17 17 17 17 16 17 16
5 4 5 6 6 6 7 6 6 7 6 6 6 5 5 4 5 2 5 5 6 6 5 5 5 5 6 8 4 4 5 6 7 7 5 5 5 5 5 5 5 5 6 10 12 11 11 12 12 13 14 15 16 17 18 19 19 19 18 17 17 17 17 17 16 16 17 17 17 17 17 16 16 17 17 18 18 18 18 17 18 17 17 17 17
4 4 4 4 6 6 6 6 6 5 5 5 5 5 4 5 5 5 5 4 5 5 6 5 5 6 6 6 5 4 4 6 5 4 5 5 4 5 5 5 5 5 5 5 7 10 11 12 13 13 14 15 16 17 18 20 20 19 18 18 18 18 17 17 17 16 17 17 17 17 18 17 17 17 18 18 18 18 18 17 18 18 17 17 17
4 4 4 4 6 6 6 5 4 4 5 4 3 5 5 5 5 5 5 6 5 6 6 4 3 5 2 2 3 2 5 4 4 5 5 4 5 5 5 5 5 5 5 5 6 6 11 12 13 15 14 15 16 17 18 19 20 20 19 18 18 19 18 17 17 17 17 17 17 18 18 19 18 18 18 18 19 18 18 18 18 18 18 17 18
5 5 5 5 5 6 4 2 3 4 5 4 5 5 4 5 6 5 7 4 2 4 5 3 4 4 2 0 2 3 4 4 5 5 4 5 6 6 6 6 6 6 5 6 6 6 9 13 13 15 16 16 16 16 17 19 19 20 20 19 19 19 18 18 18 17 16 17 18 17 17 18 19 19 19 18 18 19 19 18 18 17 18 18 18
6 6 6 6 5 5 3 3 2 4 6 6 6 6 5 6 5 2 1 1 3 4 5 5 4 5 3 0 3 4 3 4 6 5 5 6 5 6 8 7 5 5 5 5 6 6 6 9 14 15 16 16 15 16 16 17 19 19 20 20 20 20 20 20 19 18 17 17 18 18 18 18 19 19 20 20 19 19 18 18 18 18 17 18 18
5 5 6 5 5 4 3 4 2 2 3 5 5 4 5 3 2 2 3 3 3 4 4 4 5 5 5 4 1 3 4 5 5 6 6 6 7 7 6 6 6 5 6 6 6 6 7 6 6 6 8 16 15 18 17 16 17 19 20 20 20 21 20 21 20 20 18 18 18 18 18 18 18 17 19 20 20 19 19 18 18 18 18 18 18
7 5 5 6 5 5 4 3 2 2 3 4 5 6 6 4 3 3 4 4 3 4 3 3 4 5 6 6 3 3 4 4 4 6 5 6 7 6 6 5 4 6 7 7 6 7 7 7 6 6 6 10 16 15 18 17 16 17 19 20 20 21 21 21 21 21 20 19 19 18 18 18 18 20 19 19 20 20 19 19 20 19 18 17 17
7 6 7 6 6 5 3 3 2 2 3 4 4 4 4 4 2 1 3 3 3 3 3 1 3 6 5 4 5 3 4 4 6 5 6 6 6 6 5 4 6 6 7 6 6 6 6 7 6 6 6 6 9 15 16 16 16 17 18 19 19 20 21 21 20 20 20 20 19 18 17 18 20 20 20 19 19 19 19 20 20 19 18 17 17
7 7 7 6 6 6 5 4 3 3 4 4 4 4 4 3 1 2 2 3 4 3 2 1 3 2 4 5 5 5 4 3 3 5 6 6 6 6 6 6 8 8 7 6 6 6 6 6 6 6 6 6 6 6 8 11 13 18 17 18 18 19 20 20 19 21 21 20 19 18 17 18 19 19 19 20 19 19 19 19 20 19 18 19 19
8 7 7 6 6 6 6 5 4 4 4 5 4 4 4 4 3 4 4 2 4 4 4 3 3 1 1 2 3 5 6 5 2 1 4 5 5 6 7 7 10 8 7 6 6 6 5 6 6 7 6 6 6 6 7 8 9 14 17 18 17 18 19 20 20 22 20 20 19 18 17 18 19 19 19 19 19 18 19 19 19 19 19 19 18
9 8 7 6 6 7 7 6 7 5 5 5 4 6 5 4 4 4 3 4 2 4 4 3 4 3 3 2 1 1 6 2 3 6 4 4 6 7 6 7 9 8 5 7 7 7 6 6 6 7 6 7 7 7 7 7 10 13 15 17 18 17 18 19 20 21 20 20 19 18 18 17 17 18 18 19 19 19 19 18 18 19 19 19 19
9 9 8 8 7 7 7 7 6 5 5 5 6 7 7 6 6 5 5 5 6 4 4 3 5 6 4 0 2 1 3 4 3 7 3 4 3 4 4 6 7 7 5 7 6 2 3 4 5 4 5 6 7 7 7 7 6 6 9 14 17 17 18 19 20 20 19 20 18 17 17 17 17 17 18 18 19 19 19 19 19 18 18 19 19
8 8 9 8 8 8 8 7 7 7 6 6 6 4 4 5 5 6 6 6 6 6 6 4 5 5 7 7 5 4 3 2 1 5 5 3 5 6 4 4 2 3 3 3 3 3 2 3 3 5 4 5 6 6 7 7 6 7 7 9 15 16 16 18 18 18 19 19 18 17 17 17 17 18 18 18 19 19 19 19 19 19 19 18 18
8 8 9 9 8 8 8 8 7 7 6 6 6 6 6 6 5 5 6 5 4 6 8 8 3 3 5 7 4 3 4 2 4 0 5 6 4 5 6 2 1 2 2 2 3 3 4 4 6 6 7 6 6 7 7 8 10 10 13 13 14 16 16 17 17 18 18 18 17 17 17 17 17 17 17 17 18 18 18 19 19 19 19 19 19
8 8 9 9 8 8 8 7 7 7 6 7 8 7 6 5 5 5 5 5 6 7 8 7 6 5 4 6 5 4 4 4 4 5 4 4 8 6 5 6 1 3 2 2 1 2 3 2 3 6 6 7 7 7 7 8 7 9 9 14 14 15 16 17 17 18 18 18 17 16 16 16 15 15 16 16 17 18 19 19 19 19 19 19 19
8 9 9 9 9 9 8 7 7 8 7 7 7 7 7 7 6 6 5 6 5 7 6 7 6 7 4 4 4 5 5 5 4 3 4 3 7 6 7 4 3 3 4 3 3 2 3 4 3 3 4 6 7 7 7 7 7 6 8 13 15 15 16 17 18 18 18 16 16 16 16 15 15 16 16 16 17 18 19 19 20 20 20 20 20
9 8 8 8 9 8 8 9 9 9 8 8 8 7 7 7 8 7 6 6 5 5 7 7 7 7 6 5 4 3 2 3 3 4 3 5 7 5 4 5 6 6 3 3 1 2 3 4 4 4 3 4 5 5 5 6 6 6 9 14 15 17 16 17 18 16 17 16 16 16 15 16 16 16 16 16 17 17 18 19 20 20 20 20 20
8 8 8 8 9 8 9 9 9 8 8 8 8 8 9 8 8 7 6 7 7 7 8 8 7 7 7 6 8 8 8 7 7 6 5 4 4 7 6 4 5 7 6 1 4 5 4 3 3 5 2 2 3 5 6 7 8 10 14 16 18 17 17 17 16 16 15 16 17 16 16 15 15 14 14 15 16 16 17 18 19 19 19 20 19
7 7 7 9 8 8 8 7 7 7 8 8 8 8 8 7 7 6 7 7 7 7 7 8 8 7 8 7 8 8 7 7 6 6 6 6 6 7 7 3 3 5 6 6 5 4 3 3 5 4 2 2 3 4 5 6 7 13 14 16 18 17 16 15 16 17 18 18 17 17 17 16 16 15 15 15 15 16 16 17 18 18 19 19 19
7 7 9 10 8 8 8 8 8 8 8 8 9 9 8 8 8 8 8 8 8 8 8 10 9 8 8 8 8 8 9 8 6 6 6 6 6 6 5 2 6 5 2 1 4 4 5 5 3 2 2 3 3 2 4 5 7 10 16 11 16 15 16 18 18 17 17 17 18 18 17 16 15 15 15 15 15 15 15 16 17 17 18 18 19
8 9 11 10 8 9 9 9 9 9 9 9 10 9 8 9 9 9 10 9 8 9 10 10 8 9 8 7 8 9 8 6 5 5 5 4 5 7 6 3 3 6 2 2 2 2 5 2 1 2 4 4 2 2 3 3 4 9 14 9 12 16 17 17 15 15 16 17 17 17 16 15 15 15 15 15 15 14 14 14 15 16 17 17 18
8 9 9 9 8 8 9 9 9 9 8 8 9 9 8 8 8 9 9 8 9 9 9 10 9 9 8 7 7 7 6 5 5 3 2 6 7 7 6 7 5 3 4 2 3 4 7 5 5 5 3 2 3 3 2 4 4 5 4 2 3 10 11 11 13 15 17 17 17 17 15 15 15 15 16 14 11 12 14 13 14 15 16 17 17
8 7 9 8 9 8 8 9 9 9 8 9 9 8 9 8 8 8 10 7 8 9 9 9 10 9 5 1 7 8 8 6 12 12 8 7 8 3 3 5 8 7 4 6 3 5 4 5 3 4 5 3 3 1 2 4 5 5 4 1 2 4 6 9 12 15 16 16 17 17 15 14 13 13 12 13 12 13 13 13 14 15 16 18 18
8 7 9 9 9 8 8 9 8 7 6 7 8 8 7 6 7 7 9 8 6 7 6 7 8 3 1 3 3 2 3 7 5 6 8 9 5 2 5 6 4 4 9 8 9 6 3 4 3 3 2 3 2 3 1 0 0 3 3 4 4 3 5 8 10 12 13 14 15 15 15 15 14 12 11 12 13 14 14 14 15 15 16 16 17
7 7 4 5 5 6 6 7 5 4 5 4 4 5 5 6 5 6 6 4 4 4 3 3 4 4 2 5 4 1 3 3 5 7 6 5 3 2 2 1 6 8 5 8 9 6 6 2 3 4 3 2 3 3 2 2 3 2 1 2 3 3 7 9 10 12 13 13 12 11 11 12 13 14 15 15 14 14 13 13 14 14 14 15 16
5 5 5 6 6 5 5 4 2 1 0 0 1 1 1 1 2 1 5 6 5 5 5 4 3 4 6 6 6 6 1 1 4 4 5 6 3 3 2 2 5 6 7 4 6 6 3 8 4 4 5 3 2 3 5 3 5 5 4 5 5 6 7 6 9 9 11 12 12 13 14 14 14 14 14 14 13 13 13 14 14 14 14 14 14
4 2 1 1 2 2 2 3 4 5 6 6 5 6 5 5 5 5 6 7 6 5 5 4 4 5 6 5 7 4 5 2 2 4 6 6 1 3 7 5 3 3 3 4 8 14 10 8 6 5 5 7 6 5 7 6 7 9 3 5 6 8 5 4 7 11 10 9 10 11 12 13 14 13 11 14 14 14 14 14 14 14 14 13 14
3 5 4 4 5 5 6 7 8 8 7 7 6 5 6 5 5 4 3 4 4 4 3 4 5 4 3 5 5 3 4 5 4 5 5 5 2 1 6 7 4 2 5 8 10 12 10 8 7 7 7 5 7 4 6 6 6 6 6 4 3 3 4 5 6 9 10 9 10 11 11 11 11 12 13 14 14 14 15 14 14 14 13 13 13
4 5 6 6 7 9 9 10 11 11 10 10 10 8 7 5 6 5 5 4 5 4 3 3 5 4 3 1 3 6 5 6 3 3 5 6 4 3 7 6 8 8 7 7 8 8 10 8 8 4 4 1 4 3 5 6 7 6 6 5 4 4 6 6 5 5 8 8 9 9 10 11 11 11 12 13 14 15 15 15 14 14 14 14 13
6 7 8 8 8 9 11 11 11 10 10 10 9 9 9 9 8 7 7 6 6 6 6 5 5 4 3 3 2 3 4 5 5 6 5 6 6 5 6 6 6 7 5 7 7 8 7 7 8 8 6 5 5 6 6 5 5 5 5 6 6 4 3 4 5 4 6 8 11 12 12 12 11 12 12 13 13 13 14 14 14 14 14 14 13
8 7 8 8 9 10 11 10 10 9 10 9 9 9 8 8 8 8 9 8 7 7 7 7 7 7 7 5 3 1 2 5 6 5 6 6 6 6 6 5 6 6 7 6 5 5 4 6 10 10 6 5 4 3 4 4 5 4 2 4 4 4 4 2 2 3 4 7 9 10 10 10 11 11 11 13 13 13 14 14 14 14 13 13 13
7 7 7 8 10 10 10 9 9 10 9 8 8 8 7 7 8 7 7 7 7 6 4 3 5 5 6 6 6 5 2 2 3 4 4 5 4 5 5 5 6 6 6 6 6 6 6 8 8 7 5 4 5 5 4 7 5 2 3 3 3 4 4 5 4 4 7 10 9 10 10 10 11 12 11 10 10 12 12 12 12 13 13 13 13
7 7 8 9 9 10 10 9 9 8 8 7 7 7 6 6 5 5 5 5 6 6 6 6 5 4 5 5 6 5 4 3 3 3 3 3 3 4 4 4 4 4 6 6 6 6 7 6 6 7 6 6 4 4 4 2 2 4 5 6 4 3 4 5 5 4 3 3 2 3 5 6 8 10 11 10 10 11 11 11 11 12 12 12 12
8 8 10 11 9 9 9 8 8 7 7 6 6 5 5 4 4 4 5 4 5 5 5 6 6 5 5 5 5 4 4 4 4 4 3 3 4 3 4 4 4 4 4 4 4 5 5 5 5 6 7 7 3 6 4 1 2 4 5 5 6 4 2 3 4 3 1 1 0 2 3 4 5 5 6 8 7 7 8 9 10 11 11 12 12
8 9 9 10 8 8 7 7 6 6 6 6 5 5 4 3 4 4 4 4 4 4 4 5 6 6 6 6 6 6 6 4 4 4 3 3 3 4 4 3 4 4 4 4 4 5 5 6 6 6 5 6 5 3 4 3 3 4 4 6 6 5 4 2 3 3 1 0 1 1 1 1 2 3 3 4 6 7 8 8 9 10 11 12 12
8 9 9 9 9 9 7 7 6 5 6 6 5 6 6 7 6 6 6 6 6 6 6 6 6 6 6 6 6 6 8 11 12 10 9 7 3 3 3 3 4 3 2 3 3 4 6 6 6 5 5 6 7 5 6 4 4 5 2 2 4 3 3 2 2 1 3 2 1 0 1 2 2 2 1 2 3 4 5 6 6 8 10 11 12
8 8 9 8 8 7 7 6 6 6 6 5 10 13 10 7 5 4 4 4 4 5 5 5 5 5 5 5 6 13 13 12 10 11 11 11 9 4 4 3 4 4 4 4 3 4 5 6 5 5 6 7 7 5 5 5 3 2 3 3 4 1 1 1 2 1 1 1 0 1 2 2 3 4 3 4 4 3 4 2 4 6 7 10 12
8 8 8 8 7 6 7 7 7 6 5 6 11 10 11 14 8 5 5 5 4 4 4 5 5 6 5 5 4 8 9 9 6 10 9 10 9 7 6 6 3 3 4 4 5 5 4 4 3 4 6 7 7 4 5 7 3 3 3 2 3 1 1 1 2 3 3 2 2 1 3 1 1 2 3 4 4 4 4 4 6 7 9 11 12
8 8 9 7 6 6 5 5 5 4 4 8 10 11 12 13 12 6 5 5 5 5 5 5 6 6 6 6 5 4 4 6 4 4 7 10 11 9 8 6 5 5 4 3 4 3 2 4 4 5 4 5 5 4 4 2 4 1 1 1 1 3 3 2 2 1 1 1 3 0 3 2 0 0 2 4 4 4 5 6 6 7 8 8 9
8 9 6 5 4 3 4 5 5 4 3 10 10 13 13 13 13 9 5 5 5 6 6 6 6 6 6 6 6 5 5 11 6 4 4 5 9 11 9 9 7 4 4 5 5 3 3 4 4 5 5 3 4 4 2 2 1 1 2 6 3 1 1 1 2 1 1 3 1 1 2 2 1 1 2 4 4 3 5 8 14 12 8 7 6
7 6 5 4 3 3 4 4 3 3 3 10 11 12 12 13 12 9 5 6 5 5 6 6 6 6 6 5 5 5 5 5 4 3 3 4 5 5 4 4 4 3 5 6 5 6 3 2 3 4 2 3 4 2 2 2 1 1 2 4 2 1 1 1 1 1 2 3 2 0 2 2 2 2 3 4 4 5 6 12 15 13 9 6 5
5 5 4 4 3 3 3 3 2 3 5 12 11 12 11 11 11 8 5 5 5 5 6 6 7 7 6 5 5 6 5 4 2 5 4 3 3 4 3 4 4 3 3 4 5 4 4 2 2 3 1 1 2 3 3 1 2 2 2 1 1 1 1 0 1 1 1 5 2 1 1 3 2 3 3 3 5 5 5 8 14 12 11 10 10
4 4 4 4 4 4 3 3 2 3 3 10 10 10 10 10 10 5 5 5 5 5 6 6 7 7 6 5 5 5 5 2 5 8 8 2 3 3 4 4 4 3 4 6 9 10 5 3 2 2 1 3 3 3 3 4 4 3 2 1 2 4 3 3 1 3 3 4 5 2 0 2 2 2 2 3 4 4 4 5 8 12 12 12 13
5 5 5 4 4 4 3 2 2 3 3 6 8 8 8 11 7 5 4 5 5 5 6 6 6 6 5 4 3 3 3 2 5 6 9 6 4 4 4 4 4 3 6 7 8 8 8 4 3 3 4 3 3 1 3 5 3 1 3 3 3 0 2 1 1 2 2 1 3 3 1 1 2 3 3 3 2 2 5 6 5 6 10 12 12
6 5 4 5 4 4 4 3 3 3 4 6 8 9 9 10 8 4 5 5 6 6 7 6 5 5 8 17 8 4 2 3 6 7 9 6 4 4 4 3 5 6 6 7 6 6 10 3 3 5 4 2 1 1 3 2 2 4 3 2 1 2 2 1 0 0 1 3 4 4 1 1 2 3 3 1 3 3 5 5 6 7 8 6 11
6 5 5 5 5 5 4 3 7 4 3 5 7 8 10 10 9 4 5 4 5 6 6 7 5 6 7 9 13 9 5 5 7 7 8 7 2 3 2 3 4 4 4 6 6 6 6 6 6 6 7 9 7 6 7 13 10 7 3 2 2 2 3 2 1 0 2 1 4 5 2 2 4 4 2 3 3 2 2 3 6 6 5 5 6
Wind_Direction
221 221 216 223 225 222 212 215 211 221 208 228 224 233 240 240 240 245 240 240 242 256 258 259 246 235 228 234 228 222 219 228 228 231 231 234 231 234 237 240 242 245 246 237 225 224 225 224 219 215 218 224 227 224 223 225 225 224 222 221 220 222 223 224 225 221 215 213 217 220 223 223 219 217 223 230 230 229 225 223 221 221 219 220 222
219 218 207 227 225 222 219 219 215 211 203 227 227 219 231 241 250 257 262 267 270 259 237 253 251 246 237 235 230 231 211 218 225 227 233 230 233 238 241 242 242 245 248 244 232 225 227 226 224 220 216 219 224 227 225 226 227 226 223 222 220 221 224 225 227 228 228 223 217 218 220 223 224 221 220 224 227 228 227 225 224 224 224 223 223
218 215 214 222 227 217 223 221 222 212 203 222 225 222 225 229 235 249 293 311 289 280 269 269 263 253 240 240 236 227 214 215 220 220 229 233 233 235 243 247 249 250 250 247 244 227 224 225 223 223 221 218 221 223 225 229 227 227 226 223 222 223 224 224 225 227 229 229 227 221 219 221 224 225 224 224 226 226 227 225 224 226 227 227 227
218 215 212 220 224 214 224 218 225 213 205 210 213 221 223 236 261 283 261 256 268 276 270 266 274 274 268 253 240 219 210 207 213 215 221 227 230 236 242 247 252 253 252 254 257 256 226 224 219 222 222 221 219 221 225 228 228 227 227 226 225 225 226 225 222 224 227 229 231 229 225 223 221 222 226 226 227 227 227 228 226 226 227 228 229
213 207 210 219 223 210 218 220 215 210 207 209 210 218 238 252 254 244 265 270 275 275 268 247 263 277 281 272 252 226 203 197 209 216 221 220 222 230 237 244 254 262 264 260 257 254 240 219 222 217 220 221 221 220 223 228 229 228 227 227 228 228 227 228 226 224 224 226 228 232 234 230 225 223 225 226 228 229 227 227 228 227 228 229 230
189 201 209 215 224 208 211 213 217 210 206 204 209 207 218 224 242 228 247 249 269 278 285 278 270 278 282 272 261 228 193 192 203 211 214 220 227 226 232 234 240 245 248 256 254 251 249 240 229 221 218 219 220 221 223 227 229 227 227 228 229 231 231 229 229 227 225 225 225 228 231 233 233 230 228 227 229 230 229 227 227 227 228 229 230
212 203 214 212 227 219 217 214 216 216 210 211 212 219 214 231 238 251 271 264 253 271 271 268 270 269 260 271 254 208 192 208 204 201 205 218 232 247 233 233 235 240 249 256 260 256 250 241 236 227 218 218 218 220 224 228 228 228 227 228 230 231 232 232 231 229 227 227 228 228 229 229 232 234 233 230 230 230 230 228 228 228 227 228 230
220 212 237 215 224 225 223 222 210 212 227 216 205 225 224 233 241 227 254 260 241 237 221 239 255 285 299 281 219 190 210 203 198 208 211 210 233 238 235 237 236 232 242 246 250 251 248 242 232 226 221 217 217 218 221 225 227 228 227 227 229 231 232 232 233 232 232 231 230 229 231 232 230 230 233 235 234 233 231 230 228 228 228 227 229
211 205 213 224 227 240 245 231 226 216 220 201 208 224 220 230 245 231 210 229 258 305 305 309 303 298 344 287 245 187 202 193 196 202 191 212 230 239 239 242 241 233 226 236 244 250 251 239 228 224 223 223 222 220 220 222 222 226 228 227 229 230 229 229 231 232 232 232 231 232 232 234 236 235 232 232 235 236 235 233 231 229 228 228 228
217 207 211 220 219 226 247 251 232 228 232 214 211 219 214 216 231 243 222 320 301 299 300 302 304 306 311 126 216 221 217 195 207 204 199 222 234 235 230 232 241 242 235 234 238 245 248 245 233 221 219 221 221 222 221 220 222 223 226 227 229 231 232 230 230 231 231 229 233 232 234 233 232 234 235 234 232 233 236 237 235 233 231 228 229
234 229 218 231 232 216 218 257 264 257 267 239 221 209 214 199 193 269 294 248 239 259 263 284 302 309 305 301 249 241 232 216 210 219 225 227 235 239 233 232 232 239 236 233 241 244 248 246 235 221 218 216 213 221 220 218 218 221 223 225 228 231 232 233 231 230 230 227 229 229 230 230 230 230 232 235 234 231 230 232 234 235 235 234 231
219 219 225 233 237 230 224 247 255 270 254 232 207 203 211 235 274 246 274 297 260 256 268 298 310 312 305 300 262 227 236 229 226 231 229 232 240 250 240 238 240 250 247 240 234 236 239 239 225 217 215 218 214 213 219 218 217 219 222 224 226 229 231 233 232 231 229 228 228 226 223 224 227 232 231 231 232 232 230 230 231 233 235 234 235
216 210 220 230 234 239 223 245 201 225 245 243 243 237 222 205 227 260 250 279 298 277 281 357 345 315 319 301 303 276 245 221 226 226 234 237 249 254 256 262 253 248 247 239 226 223 224 221 219 216 215 216 218 217 214 214 216 216 217 220 223 226 230 232 232 233 233 232 231 230 227 224 228 232 230 229 231 233 232 231 230 230 232 234 235
215 212 219 218 232 240 246 248 245 230 228 237 234 248 244 221 207 291 241 236 266 265 276 49 338 247 306 324 320 314 297 293 242 226 229 235 238 244 258 248 247 240 245 243 232 209 211 211 215 216 216 213 211 205 212 214 218 217 215 219 221 224 227 231 232 234 235 235 235 231 227 226 226 228 229 229 228 231 232 231 232 230 229 230 233
213 213 216 223 225 227 237 243 246 240 255 275 268 261 255 241 219 217 270 265 257 277 264 164 241 100 104 7 310 353 325 338 325 186 213 233 229 239 240 235 244 239 234 234 231 228 217 206 205 208 208 208 203 204 209 209 213 216 216 221 222 223 224 227 229 232 233 234 234 231 227 224 226 228 227 228 230 230 231 232 231 231 230 230 231
209 210 217 221 221 222 228 228 239 233 226 238 243 238 234 243 243 238 219 276 274 283 254 200 171 127 307 226 244 19 323 311 307 292 270 229 229 249 252 249 251 247 207 220 223 218 227 221 211 210 207 202 201 206 207 211 215 216 220 220 222 223 223 224 225 227 229 230 230 228 228 227 225 225 226 227 227 228 229 230 231 232 233 231 230
204 206 208 216 217 221 224 231 234 240 224 228 223 216 211 215 217 220 207 215 253 257 289 226 204 193 184 58 324 3 235 255 335 288 322 329 287 258 246 252 257 255 233 239 243 244 248 244 241 231 221 212 207 208 211 214 212 212 218 222 224 224 222 223 223 225 226 228 228 227 227 227 226 225 225 226 227 228 228 229 230 230 231 233 232
202 204 208 212 215 218 217 223 229 234 226 227 231 238 238 226 221 211 226 224 227 249 267 277 231 211 206 203 182 221 231 252 26 291 316 270 285 301 317 305 275 269 254 294 343 303 245 265 274 271 257 235 221 210 212 214 210 209 210 217 216 221 223 223 224 226 226 228 227 226 226 226 226 226 226 226 227 227 228 228 229 229 229 230 231
207 206 211 212 214 218 219 222 227 229 229 224 232 228 227 227 223 208 226 234 214 235 242 256 296 268 221 228 226 221 172 132 236 0 323 316 324 319 312 282 297 285 256 214 233 263 270 249 242 222 226 234 230 225 215 214 212 210 211 213 212 218 221 221 222 224 224 224 225 225 225 226 227 227 228 228 228 228 229 229 230 230 229 228 229
208 211 213 214 215 220 223 226 229 234 226 226 230 233 238 248 236 220 224 226 219 220 239 238 218 257 214 222 230 232 209 219 188 197 216 280 302 307 293 293 222 191 205 210 205 225 259 261 243 240 231 217 221 230 224 218 215 215 218 216 212 215 218 219 217 219 220 222 224 225 225 227 228 229 230 230 230 230 230 230 230 230 230 229 229
213 212 213 215 216 219 219 223 228 233 228 234 235 230 227 233 242 249 245 239 214 221 220 231 214 236 251 258 231 227 212 215 227 188 191 211 274 276 288 319 323 258 199 199 198 234 259 262 267 256 236 229 220 226 229 227 219 211 218 217 219 219 219 219 218 215 217 218 223 224 224 223 224 225 226 227 228 229 230 231 232 232 233 232 231
219 218 218 220 221 221 221 221 224 230 228 231 231 229 230 232 235 232 229 238 233 225 223 236 224 234 218 221 207 216 216 237 232 206 232 209 236 257 255 279 303 293 283 285 248 209 217 238 262 266 237 238 233 222 235 241 230 217 220 220 221 223 221 220 219 214 214 216 222 224 224 224 222 222 224 226 227 229 230 231 233 233 234 234 233
214 223 220 223 226 223 221 222 223 224 226 226 227 225 228 229 235 234 233 228 238 236 240 239 235 234 228 209 212 200 198 204 210 202 197 214 241 261 272 243 241 289 290 316 307 298 290 277 280 293 314 287 250 229 216 224 230 226 220 218 221 221 221 220 217 215 210 212 219 220 222 225 225 225 225 227 229 231 233 234 236 237 237 236 236
219 226 232 230 227 228 227 226 225 224 225 222 225 225 228 228 231 229 236 234 235 231 230 239 235 230 231 218 220 217 219 219 217 197 195 223 220 250 257 273 289 239 281 313 281 258 253 257 257 242 253 269 274 255 235 229 241 238 228 223 221 219 216 215 216 216 215 216 218 220 221 221 221 222 223 225 228 231 233 234 235 236 236 237 237
235 228 234 233 228 232 233 230 232 227 226 221 227 226 227 225 227 230 231 233 229 227 232 236 226 217 222 219 218 221 226 222 212 205 208 215 211 245 257 209 248 280 284 0 298 310 256 238 227 231 287 319 317 301 252 231 224 232 237 236 226 218 214 215 217 218 216 217 218 220 222 221 221 223 225 228 229 231 233 235 236 236 236 236 237
222 224 228 229 225 225 225 228 229 229 223 220 223 225 223 224 227 230 233 233 233 229 231 237 229 222 218 221 221 221 227 219 212 205 212 202 222 222 242 240 205 250 297 322 307 330 314 318 238 275 298 293 269 286 320 253 230 232 220 213 217 212 213 215 217 219 221 221 223 223 223 223 224 226 228 230 231 232 234 237 238 238 239 238 238
216 225 227 228 224 220 222 226 229 228 224 222 226 227 228 231 232 233 237 237 234 234 235 235 234 226 223 229 232 224 225 214 204 237 291 226 214 216 199 247 275 252 273 283 307 247 257 305 305 309 274 254 290 301 302 340 337 315 242 211 221 210 206 210 213 214 217 220 222 222 220 220 223 227 231 233 228 230 236 236 236 237 238 239 240
240 238 242 235 238 232 223 226 230 228 220 220 224 227 229 228 236 238 244 239 237 236 237 237 241 233 193 357 322 326 328 348 34 24 320 298 271 251 211 210 232 280 319 287 264 263 242 256 302 249 270 263 228 233 348 13 3 43 87 21 327 315 275 239 221 216 217 219 221 221 219 215 218 222 227 230 230 232 235 238 238 239 239 243 242
245 244 250 252 250 250 247 243 240 235 225 223 226 231 231 230 236 242 246 247 244 247 252 248 250 289 84 170 94 307 15 81 132 178 230 241 229 217 205 220 147 173 254 269 264 264 271 211 243 299 187 105 305 289 55 65 16 336 358 2 340 294 262 258 254 247 238 230 225 223 224 227 227 229 226 226 229 232 234 236 240 240 239 239 241
247 265 281 280 275 268 257 254 248 228 229 238 240 243 240 237 243 247 256 275 269 269 285 323 348 340 321 60 96 145 103 140 196 216 251 300 2 331 306 57 152 191 201 246 266 253 267 232 223 277 320 316 244 250 202 212 241 187 187 257 246 243 255 263 257 249 241 232 230 228 226 225 225 226 228 231 234 237 236 236 238 239 240 240 240
289 275 264 252 246 250 245 238 208 208 160 241 239 239 218 254 288 305 20 23 29 21 25 18 338 350 17 51 78 57 57 247 292 341 293 284 315 15 291 182 190 188 201 224 266 268 252 274 258 247 274 268 277 306 296 252 206 212 230 256 266 253 257 274 276 255 233 223 217 215 217 219 221 222 223 225 228 230 232 235 237 239 240 242 242
279 303 345 10 51 72 82 86 67 51 43 26 26 42 56 46 31 31 29 30 26 19 14 1 337 12 28 68 79 4 308 304 264 259 277 285 260 263 280 268 220 180 166 227 240 262 264 264 269 274 257 285 288 282 281 284 281 285 242 215 228 245 254 262 258 259 254 238 228 222 221 221 222 222 216 223 225 228 232 235 237 237 239 241 243
63 68 64 63 65 67 65 63 62 55 49 40 35 54 62 52 26 10 43 28 13 356 23 335 349 7 32 73 116 152 311 293 268 284 289 291 305 90 287 285 275 208 204 218 237 255 267 267 272 270 273 261 273 253 265 271 281 283 282 279 269 273 269 253 244 248 244 235 231 231 230 229 229 230 230 231 233 236 239 240 239 238 239 242 244
56 59 48 43 50 52 54 54 54 50 46 40 33 35 40 26 9 8 23 23 9 3 359 355 340 345 345 11 145 150 199 276 290 249 259 284 276 195 211 232 249 251 225 235 240 257 264 274 276 268 285 284 279 277 276 276 273 274 280 283 286 269 266 250 246 264 252 236 232 232 228 228 231 235 238 240 241 243 247 248 246 241 239 239 241
56 59 62 62 60 61 58 54 54 50 47 46 39 39 35 27 18 10 10 13 3 4 357 349 334 326 334 341 339 152 173 212 243 258 269 271 271 262 259 247 257 262 253 229 240 247 267 285 286 288 267 270 265 276 283 285 283 283 289 289 287 292 259 248 244 245 243 230 225 223 223 223 227 231 237 242 247 249 252 253 251 246 241 238 238
66 62 61 61 63 64 64 60 56 56 52 50 47 40 35 31 25 17 13 17 19 12 2 357 347 347 340 339 347 343 191 210 239 250 255 258 261 267 267 251 238 248 254 255 234 219 201 247 273 273 280 282 262 261 294 295 296 304 281 283 289 275 275 264 225 222 226 227 233 233 228 224 227 233 236 238 242 247 249 250 250 248 243 240 239
64 66 64 64 66 64 65 62 61 58 55 53 51 43 36 30 27 18 8 2 357 353 348 341 341 335 331 328 322 324 315 280 266 270 277 272 274 279 280 265 253 249 251 239 239 219 217 221 251 266 268 265 261 267 260 270 274 294 302 292 282 281 285 276 275 267 268 263 255 243 234 229 230 233 242 250 253 253 253 253 251 249 247 245 242
69 64 70 70 70 72 71 69 68 65 61 57 54 48 38 26 24 15 2 352 342 336 330 332 328 326 323 319 316 317 313 302 284 279 279 284 287 284 280 281 271 254 247 240 225 220 225 237 238 270 261 248 270 252 232 222 304 305 309 299 293 267 261 281 262 251 242 242 239 225 225 235 238 240 239 239 241 245 248 252 254 255 254 253 252
71 73 74 77 71 75 73 72 67 64 63 59 54 46 36 26 12 7 350 339 332 325 324 321 322 322 320 316 316 313 310 297 290 291 280 293 295 288 283 286 288 286 277 262 258 242 224 237 253 255 277 280 258 280 279 2 294 258 265 280 283 281 259 231 283 291 271 256 198 205 231 247 262 264 258 260 259 253 251 251 251 251 250 245 242
63 74 81 81 78 73 71 70 65 60 55 51 44 35 29 16 4 354 343 332 325 320 323 326 329 334 334 335 332 329 317 308 308 308 316 310 289 275 273 274 281 288 279 270 252 243 237 232 238 257 259 282 286 269 305 317 290 273 223 216 238 255 266 270 222 239 305 57 312 331 228 203 268 272 293 295 271 255 247 249 250 251 251 250 247
70 77 86 86 85 79 70 68 65 55 50 39 31 21 11 5 359 344 335 329 326 330 331 334 336 336 336 339 339 329 334 342 347 354 348 339 308 289 287 283 288 288 284 284 258 240 241 241 245 241 260 277 275 289 294 272 223 241 261 208 235 241 253 268 305 255 213 214 243 10 348 11 22 29 347 337 296 265 251 236 256 258 255 255 251
75 81 84 83 79 83 81 68 61 52 43 34 25 21 13 359 340 332 329 328 332 330 331 332 331 329 330 331 327 337 340 340 347 351 349 339 332 305 278 247 263 271 269 264 278 274 265 258 254 257 256 253 265 257 255 256 238 271 286 231 203 251 5 6 321 299 311 155 72 26 344 345 35 347 350 330 302 292 279 259 241 242 259 260 260
71 81 87 82 77 70 68 62 54 50 40 28 16 7 5 3 5 2 354 346 340 336 333 334 329 328 325 323 317 329 334 327 346 348 345 346 345 331 317 319 300 245 243 251 239 242 252 273 275 262 251 265 272 258 248 263 234 212 234 204 155 113 109 167 236 311 359 65 98 59 318 290 24 329 300 279 284 292 298 277 293 286 272 274 275
70 71 70 71 71 68 68 68 61 47 36 19 6 6 3 8 12 15 349 344 338 337 335 329 326 321 320 321 323 319 318 321 344 334 333 333 336 339 345 348 351 316 288 221 227 237 225 237 253 252 256 263 282 305 283 270 274 276 354 0 193 156 175 191 175 196 253 299 85 46 268 278 243 247 299 296 299 308 313 333 347 341 338 327 311
70 68 75 82 91 93 83 76 61 38 21 12 6 7 4 7 8 10 352 340 338 333 326 324 319 318 317 320 322 321 314 330 339 325 323 320 327 333 338 341 357 344 272 254 274 264 243 262 261 269 250 236 258 262 327 303 263 121 171 237 244 202 178 150 227 277 312 8 38 261 280 292 336 300 321 303 323 334 343 3 353 340 335 339 342
79 81 80 86 88 89 86 79 66 27 11 12 11 10 7 7 2 4 347 336 329 322 319 317 313 312 313 312 314 311 305 310 301 309 319 320 321 325 331 337 347 359 22 24 11 344 315 241 249 261 261 172 239 260 294 312 328 287 240 251 203 160 185 199 227 216 268 355 259 148 357 316 337 8 344 320 352 5 16 27 18 5 353 11 24
93 90 78 69 65 75 93 96 81 37 16 19 15 12 6 356 349 355 333 325 318 316 314 312 311 306 306 304 298 295 301 294 320 4 340 320 342 331 342 345 347 354 359 12 2 351 350 302 250 250 313 251 270 286 289 297 255 247 211 236 213 170 153 14 310 273 24 16 33 87 257 278 336 21 337 350 12 33 21 27 25 15 14 18 30
81 79 64 62 55 61 83 101 77 30 11 23 12 8 357 345 347 347 337 332 324 317 312 313 316 313 310 307 292 290 303 302 13 358 348 5 22 346 354 346 348 354 7 3 2 0 342 330 337 1 344 329 321 304 333 343 333 329 335 39 35 32 32 42 347 334 39 11 34 62 10 297 320 53 326 10 36 46 4 21 21 25 24 34 40
90 74 72 61 57 64 76 90 62 16 357 10 7 355 350 347 341 346 333 326 325 325 325 321 311 313 304 328 316 341 13 29 356 1 346 11 13 -0 1 348 347 10 359 352 344 349 325 295 3 86 306 302 14 287 291 318 318 327 63 42 1 135 112 72 335 52 51 4 18 4 130 317 340 35 347 10 47 43 22 6 349 32 34 37 44
89 86 78 69 53 49 56 68 56 30 358 353 4 352 353 348 351 348 339 337 333 338 329 321 319 338 351 17 47 32 14 338 1 356 353 16 13 4 2 1 19 12 355 344 335 346 356 11 188 205 231 230 223 8 342 11 10 72 93 125 231 78 86 111 162 340 77 40 8 347 55 353 323 15 20 335 29 23 15 2 18 11 10 44 56
96 94 86 76 61 44 40 38 46 43 351 338 352 353 358 358 357 349 348 335 345 344 338 331 344 354 -0 6 25 29 17 2 356 350 352 7 4 359 356 45 38 10 341 321 334 4 354 27 33 43 41 36 34 30 32 48 61 82 68 28 321 89 89 72 70 54 51 40 9 355 49 335 26 340 27 34 31 304 352 9 23 29 2 6 50